THOR BURNER 2 R/B

Satellite information

Favourite Embed

Satellite Type and Status

ROCKET BODYIN ORBIT

Key statistics

Satellite THOR BURNER 2 R/B at a glance.

Uptime

19462

Days in orbit

Revolutions

≈ 14.2

Per day

Orbit

SSO

Sun Synchronous Orbit

Inclination

99.1

Latest

Satellite identification and parameters

Extended collection of information and parameters for THOR BURNER 2 R/B.

Object identification

Identified? True

Debris? False

Object name: THOR BURNER 2 R/B

International designator: 1972-018B

Object number (NORAD): 5904

Object ID (CCSDS): 5904

Country: UNITED STATES OF AMERICA (US)

Current information (Y/N): Y

RCS size: LARGE

Orbital parameters

Period: 101.099 minutes

Inclination: 99.0734 deg

SMA: 7188.82 km

Apoapsis: 844.154 km

Periapsis: 777.216 km

RAAN: 343.6809 deg

Eccentricy: 0.0046557

Argument of periapsis: 334.4749 deg

Mean anomaly: 25.413 deg

Mean motion: 14.24348646 rev/day

Mean motion (dot): 0.00000081 rev/day2

B* drag term: 0.000054994 1/REarth

Two-line elements (TLE)

Creation date: July 5, 2025, 5:45 p.m.

Reference frame: TEME

Reference center: EARTH

Epoch: July 5, 2025, 9:40 a.m. UTC

TLE line 0: 0 THOR BURNER 2 R/B

TLE line 1: 1 05904U 72018B 25186.40317981 .00000081 00000-0 54994-4 0 9995

TLE line 2: 2 05904 99.0734 343.6809 0046557 334.4749 25.4130 14.24348646763492

Live tracking on map

Real-time ground track for satellite THOR BURNER 2 R/B.

In-orbit conjunctions

A list of the most updated potential collisions computed for object THOR BURNER 2 R/B.

Target Orbit TCA Probability of collision Miss distance Type
SL-16 DEB LEO 2025-06-07 08:11:28 0.0001367337 362.0 (m) DEBRIS
COSMOS 1275 DEB LEO 2025-04-28 21:53:30 0.0003649065 723.0 (m) DEBRIS
FENGYUN 1C DEB SSO 2025-03-19 22:40:21 0.0003223525 358.0 (m) DEBRIS
CZ-6A DEB LEO 2025-01-23 14:45:32 0.0006627538 400.0 (m) DEBRIS
COSMOS 2251 DEB LEO 2025-01-08 07:08:23 0.0001420576 238.0 (m) DEBRIS

Associated space launch

Military meteorological satellite

THOR BURNER 2 R/B was lifted into orbit during the mission ‘Thor Burner 2A | DMSP-5B F2’, on board a Thor Burner 2A space rocket.

The launch took place on March 24, 1972, 8:46 a.m. from Space Launch Complex 10W.

For more information about the launch, click the button.

Launch to space Thor Burner 2A | DMSP-5B F2
Thor Burner 2A | DMSP-5B F2

Agency: N/A

Status: Launch Successful

Launch date: March 24, 1972, 8:46 a.m. UTC

Rocket: Thor Burner 2A

Launch pad: Space Launch Complex 10W

Location: Vandenberg SFB, CA, USA

...

Latest news about this satellite

There are no fresh news available about this satellite. Check back as we update our databases every day.


Newsletter sign-up

Weekly statistics, charts and insights to help you stay on top of the space industry.